Location: Unspecified
(40.7945°N, 0.0000°E)
Time: 03:34:28
(UTC+00:00)

Altair - Pass Details

Date: 24 January 2021
Orbit: 1501 x 1682 km, 47.2° (Epoch: 01 March)

Event Time Altitude Azimuth Distance (km) Brightness Sun altitude
Rises 09:07:50 0° 288° (WNW) 4,929 9.6 16.4°
Reaches altitude 10° 09:11:03 10° 292° (WNW) 3,946 9.2 16.8°
Maximum altitude 09:21:12 67° 14° (NNE) 1,789 8.0 18.2°
Drops below altitude 10° 09:31:12 10° 97° (E) 3,890 10.5 19.4°
Sets 09:34:21 0° 100° (E) 4,856 10.9 19.8°
